Location: Kamms Corner
(44.7255°N, 108.9326°W)
Time: 17:01:03
(UTC+00:00)

Envisat - Visible Passes

Search period start: 25 January 2022 00:00
Search period end: 04 February 2022 00:00
Orbit: 764 x 766 km, 98.2° (Epoch: 25 January)

Date Brightness Start Highest point End Pass type
(mag) Time Alt. Az. Time Alt. Az. Time Alt. Az.
25 Jan 4.2 11:39:28 10° NNE 11:44:17 40° E 11:49:02 10° SSE visible
25 Jan 3.8 13:18:51 10° N 13:23:06 27° WNW 13:27:20 10° WSW visible
26 Jan 5.4 11:03:30 10° NE 11:07:06 19° E 11:10:41 10° SE visible
26 Jan 3.0 12:41:29 10° N 12:46:28 56° WNW 12:51:24 10° SSW visible
27 Jan 3.2 12:04:33 10° NNE 12:09:38 70° ESE 12:14:41 10° S visible
27 Jan 4.4 13:44:51 10° NNW 13:48:05 17° WNW 13:51:19 10° W visible
28 Jan 4.6 11:28:03 10° NNE 11:32:36 32° E 11:37:08 10° SSE visible
28 Jan 3.6 13:07:03 10° N 13:11:36 34° WNW 13:16:07 10° SW visible
29 Jan 5.7 10:52:28 10° NE 10:55:23 15° E 10:58:16 10° SE visible
29 Jan 2.8 12:29:50 10° N 12:34:54 70° WNW 12:39:57 10° SSW visible
30 Jan 3.6 11:53:00 10° NNE 11:58:01 55° E 12:02:59 10° S visible
30 Jan 4.2 13:32:53 10° NNW 13:36:38 21° WNW 13:40:22 10° WSW visible
31 Jan 6.2 00:51:55 10° WSW 00:53:54 12° W 00:55:53 10° WNW visible
31 Jan 5.0 11:16:43 10° NE 11:20:56 26° E 11:25:07 10° SSE visible
31 Jan 3.3 12:55:18 10° N 13:00:05 42° WNW 13:04:49 10° SW visible
01 Feb 5.9 10:41:50 10° ENE 10:43:37 12° E 10:45:25 10° ESE visible
01 Feb 2.9 12:18:12 10° NNE 12:23:19 88° WNW 12:28:24 10° SSW visible
01 Feb 4.7 13:59:15 10° NNW 14:01:34 13° WNW 14:03:53 10° W visible
02 Feb 4.0 11:41:31 10° NNE 11:46:22 43° E 11:51:11 10° S visible
02 Feb 3.9 13:21:00 10° N 13:25:09 26° WNW 13:29:17 10° WSW visible
03 Feb 5.3 11:05:27 10° NE 11:09:13 21° E 11:12:58 10° SE visible
03 Feb 3.1 12:43:36 10° N 12:48:32 52° WNW 12:53:26 10° SW visible
